UK-DMC 2

Last updated on Thu Oct 30 2025 00:02:38 GMT+0000 (Coordinated Universal Time)

1 35683U 09041C 25302.56541103 .00001451 00000+0 22052-3 0 9990 2 35683 97.8529 78.7303 0001111 81.5449 278.5886 14.75474087872558
UTC large
Height (km)
Speed (km/s)
/
Latitude / Longitude
Inclination (degrees)
Orbital Period (minutes)
Azimuth
Elevation
Range (km)
Doppler Factor

Next 0 passes for location: London (51.5072 / 0.1276)

Sorry there are no passes over London.